Time,TemperatureF,DewpointF,PressureIn,WindDirection,WindDirectionDegrees,WindSpeedMPH,WindSpeedGustMPH,Humidity,HourlyPrecipIn,Conditions,Clouds,dailyrainin,SoftwareType,DateUTC
2013-12-13 00:00:00,20.0,14.8,30.19,West,259,7.0,10.0,80,0.00,,,0.00,WeatherCatV1.21B27,2013-12-13 05:00:00,
2013-12-13 00:01:00,20.0,14.8,30.19,WNW,283,7.0,10.0,80,0.00,,,0.00,WeatherCatV1.21B27,2013-12-13 05:01:00,
2013-12-13 00:06:00,20.0,14.8,30.19,WSW,247,4.0,8.0,80,0.00,,,0.00,WeatherCatV1.21B27,2013-12-13 05:06:00,
2013-12-13 00:11:00,20.2,15.0,30.19,WSW,255,4.0,11.0,80,0.00,,,0.00,WeatherCatV1.21B27,2013-12-13 05:11:00,
2013-12-13 00:16:00,20.2,15.0,30.19,WSW,252,7.0,9.0,80,0.00,,,0.00,WeatherCatV1.21B27,2013-12-13 05:16:00,
2013-12-13 00:21:00,20.3,15.1,30.19,WSW,243,5.0,7.0,80,0.00,,,0.00,WeatherCatV1.21B27,2013-12-13 05:21:00,
2013-12-13 00:26:00,20.4,15.2,30.18,WSW,251,3.0,13.0,80,0.00,,,0.00,WeatherCatV1.21B27,2013-12-13 05:26:00,
2013-12-13 00:31:00,20.4,15.2,30.18,WSW,258,9.0,13.0,80,0.00,,,0.00,WeatherCatV1.21B27,2013-12-13 05:31:00,
2013-12-13 00:36:00,20.5,15.3,30.18,WSW,257,7.0,9.0,80,0.00,,,0.00,WeatherCatV1.21B27,2013-12-13 05:36:00,
2013-12-13 00:41:00,20.5,15.3,30.18,WSW,258,3.0,11.0,80,0.00,,,0.00,WeatherCatV1.21B27,2013-12-13 05:41:00,
2013-12-13 00:46:00,20.5,15.3,30.18,West,270,9.0,10.0,80,0.00,,,0.00,WeatherCatV1.21B27,2013-12-13 05:46:00,
2013-12-13 00:51:00,20.5,15.3,30.18,West,279,9.0,12.0,80,0.00,,,0.00,WeatherCatV1.21B27,2013-12-13 05:51:00,
2013-12-13 00:56:00,20.6,15.4,30.17,WSW,258,3.0,10.0,80,0.00,,,0.00,WeatherCatV1.21B27,2013-12-13 05:56:00,
2013-12-13 01:01:00,20.6,15.7,30.18,West,269,6.0,9.0,81,0.00,,,0.00,WeatherCatV1.21B27,2013-12-13 06:01:00,
2013-12-13 01:06:00,20.6,15.7,30.18,West,271,4.0,8.0,81,0.00,,,0.00,WeatherCatV1.21B27,2013-12-13 06:06:00,
2013-12-13 01:11:00,20.5,15.6,30.18,West,272,3.0,8.0,81,0.00,,,0.00,WeatherCatV1.21B27,2013-12-13 06:11:00,
2013-12-13 01:16:00,20.5,15.6,30.18,West,263,6.0,9.0,81,0.00,,,0.00,WeatherCatV1.21B27,2013-12-13 06:16:00,
2013-12-13 01:21:00,20.4,15.5,30.17,West,274,5.0,8.0,81,0.00,,,0.00,WeatherCatV1.21B27,2013-12-13 06:21:00,
2013-12-13 01:26:00,20.5,15.6,30.18,WSW,252,5.0,8.0,81,0.00,,,0.00,WeatherCatV1.21B27,2013-12-13 06:26:00,
2013-12-13 01:31:00,20.6,16.0,30.17,West,275,7.0,14.0,82,0.00,,,0.00,WeatherCatV1.21B27,2013-12-13 06:31:00,
2013-12-13 01:36:00,20.6,16.0,30.17,WSW,257,4.0,13.0,82,0.00,,,0.00,WeatherCatV1.21B27,2013-12-13 06:36:00,
2013-12-13 01:41:00,20.6,16.0,30.17,WSW,253,5.0,8.0,82,0.00,,,0.00,WeatherCatV1.21B27,2013-12-13 06:41:00,
2013-12-13 01:46:00,20.7,16.1,30.17,WSW,257,7.0,8.0,82,0.00,,,0.00,WeatherCatV1.21B27,2013-12-13 06:46:00,
2013-12-13 01:51:00,20.7,16.1,30.17,West,271,8.0,8.0,82,0.00,,,0.00,WeatherCatV1.21B27,2013-12-13 06:51:00,
2013-12-13 01:56:00,20.7,16.1,30.17,WSW,257,5.0,14.0,82,0.00,,,0.00,WeatherCatV1.21B27,2013-12-13 06:56:00,
2013-12-13 02:01:00,20.7,16.1,30.17,West,267,6.0,15.0,82,0.00,,,0.00,WeatherCatV1.21B27,2013-12-13 07:01:00,
2013-12-13 02:06:00,20.8,16.2,30.17,West,265,9.0,11.0,82,0.00,,,0.00,WeatherCatV1.21B27,2013-12-13 07:06:00,
2013-12-13 02:11:00,20.8,16.2,30.17,West,277,8.0,11.0,82,0.00,,,0.00,WeatherCatV1.21B27,2013-12-13 07:11:00,
2013-12-13 02:16:00,20.7,16.1,30.17,West,263,5.0,9.0,82,0.00,,,0.00,WeatherCatV1.21B27,2013-12-13 07:16:00,
2013-12-13 02:21:00,20.7,16.1,30.17,SW,227,5.0,10.0,82,0.00,,,0.00,WeatherCatV1.21B27,2013-12-13 07:21:00,
2013-12-13 02:26:00,20.6,16.0,30.17,WSW,249,8.0,11.0,82,0.00,,,0.00,WeatherCatV1.21B27,2013-12-13 07:26:00,
2013-12-13 02:31:00,20.6,16.0,30.17,WNW,302,7.0,10.0,82,0.00,,,0.00,WeatherCatV1.21B27,2013-12-13 07:31:00,
2013-12-13 02:36:00,20.6,16.0,30.17,West,275,6.0,11.0,82,0.00,,,0.00,WeatherCatV1.21B27,2013-12-13 07:36:00,
2013-12-13 02:41:00,20.6,16.0,30.17,West,267,4.0,9.0,82,0.00,,,0.00,WeatherCatV1.21B27,2013-12-13 07:41:00,
2013-12-13 02:46:00,20.5,15.9,30.17,West,263,8.0,11.0,82,0.00,,,0.00,WeatherCatV1.21B27,2013-12-13 07:46:00,
2013-12-13 02:52:00,20.5,15.9,30.17,West,264,6.0,10.0,82,0.00,,,0.00,WeatherCatV1.21B27,2013-12-13 07:52:00,
2013-12-13 02:57:00,20.4,15.8,30.17,WNW,283,7.0,11.0,82,0.00,,,0.00,WeatherCatV1.21B27,2013-12-13 07:57:00,
2013-12-13 03:02:00,20.4,15.8,30.17,West,268,8.0,9.0,82,0.00,,,0.00,WeatherCatV1.21B27,2013-12-13 08:02:00,
2013-12-13 03:07:00,20.4,15.5,30.17,West,270,6.0,9.0,81,0.00,,,0.00,WeatherCatV1.21B27,2013-12-13 08:07:00,
2013-12-13 03:12:00,20.4,15.8,30.17,West,259,7.0,10.0,82,0.00,,,0.00,WeatherCatV1.21B27,2013-12-13 08:12:00,
2013-12-13 03:17:00,20.4,15.8,30.17,West,265,7.0,8.0,82,0.00,,,0.00,WeatherCatV1.21B27,2013-12-13 08:17:00,
2013-12-13 03:22:00,20.4,15.8,30.17,West,265,4.0,10.0,82,0.00,,,0.00,WeatherCatV1.21B27,2013-12-13 08:22:00,
2013-12-13 03:27:00,20.3,15.7,30.16,WSW,246,4.0,7.0,82,0.00,,,0.00,WeatherCatV1.21B27,2013-12-13 08:27:00,
2013-12-13 03:32:00,20.3,15.7,30.16,WSW,257,6.0,7.0,82,0.00,,,0.00,WeatherCatV1.21B27,2013-12-13 08:32:00,
2013-12-13 03:37:00,20.3,15.7,30.16,WSW,254,6.0,6.0,82,0.00,,,0.00,WeatherCatV1.21B27,2013-12-13 08:37:00,
2013-12-13 03:42:00,20.2,15.6,30.16,SW,233,3.0,4.0,82,0.00,,,0.00,WeatherCatV1.21B27,2013-12-13 08:42:00,
2013-12-13 03:47:00,20.1,15.5,30.16,WSW,251,4.0,8.0,82,0.00,,,0.00,WeatherCatV1.21B27,2013-12-13 08:47:00,
2013-12-13 03:52:00,20.1,15.5,30.16,NW,309,4.0,7.0,82,0.00,,,0.00,WeatherCatV1.21B27,2013-12-13 08:52:00,
2013-12-13 03:57:00,20.1,15.5,30.16,West,263,4.0,5.0,82,0.00,,,0.00,WeatherCatV1.21B27,2013-12-13 08:57:00,
2013-12-13 04:02:00,20.0,15.4,30.15,West,267,4.0,7.0,82,0.00,,,0.00,WeatherCatV1.21B27,2013-12-13 09:02:00,
2013-12-13 04:07:00,20.0,15.4,30.15,West,260,5.0,8.0,82,0.00,,,0.00,WeatherCatV1.21B27,2013-12-13 09:07:00,
2013-12-13 04:12:00,20.0,15.4,30.15,WSW,250,1.0,7.0,82,0.00,,,0.00,WeatherCatV1.21B27,2013-12-13 09:12:00,
2013-12-13 04:17:00,19.9,15.3,30.15,WSW,247,2.0,8.0,82,0.00,,,0.00,WeatherCatV1.21B27,2013-12-13 09:17:00,
2013-12-13 04:22:00,19.8,15.2,30.15,WSW,238,3.0,8.0,82,0.00,,,0.00,WeatherCatV1.21B27,2013-12-13 09:22:00,
2013-12-13 04:27:00,19.8,15.2,30.15,West,277,5.0,7.0,82,0.00,,,0.00,WeatherCatV1.21B27,2013-12-13 09:27:00,
2013-12-13 04:32:00,19.7,15.1,30.15,WNW,282,4.0,9.0,82,0.00,,,0.00,WeatherCatV1.21B27,2013-12-13 09:32:00,
2013-12-13 04:37:00,19.7,15.1,30.15,West,275,4.0,8.0,82,0.00,,,0.00,WeatherCatV1.21B27,2013-12-13 09:37:00,
2013-12-13 04:42:00,19.7,14.8,30.15,WSW,257,7.0,9.0,81,0.00,,,0.00,WeatherCatV1.21B27,2013-12-13 09:42:00,
2013-12-13 04:47:00,19.7,14.8,30.15,WNW,288,4.0,4.0,81,0.00,,,0.00,WeatherCatV1.21B27,2013-12-13 09:47:00,
2013-12-13 04:52:00,19.6,14.7,30.15,NW,306,4.0,9.0,81,0.00,,,0.00,WeatherCatV1.21B27,2013-12-13 09:52:00,
2013-12-13 04:57:00,19.6,14.7,30.15,West,261,3.0,7.0,81,0.00,,,0.00,WeatherCatV1.21B27,2013-12-13 09:57:00,
2013-12-13 05:02:00,19.6,14.7,30.14,West,272,1.0,7.0,81,0.00,,,0.00,WeatherCatV1.21B27,2013-12-13 10:02:00,
2013-12-13 05:07:00,19.5,14.6,30.15,WSW,248,6.0,8.0,81,0.00,,,0.00,WeatherCatV1.21B27,2013-12-13 10:07:00,
2013-12-13 05:12:00,19.5,14.6,30.15,WSW,238,2.0,6.0,81,0.00,,,0.00,WeatherCatV1.21B27,2013-12-13 10:12:00,
2013-12-13 05:17:00,19.4,14.5,30.14,West,261,2.0,8.0,81,0.00,,,0.00,WeatherCatV1.21B27,2013-12-13 10:17:00,
2013-12-13 05:22:00,19.3,14.4,30.15,WSW,246,2.0,5.0,81,0.00,,,0.00,WeatherCatV1.21B27,2013-12-13 10:22:00,
2013-12-13 05:27:00,19.3,14.4,30.15,WSW,250,2.0,6.0,81,0.00,,,0.00,WeatherCatV1.21B27,2013-12-13 10:27:00,
2013-12-13 05:32:00,19.2,14.4,30.15,West,269,2.0,3.0,81,0.00,,,0.00,WeatherCatV1.21B27,2013-12-13 10:32:00,
2013-12-13 05:37:00,19.2,14.4,30.15,WSW,254,2.0,4.0,81,0.00,,,0.00,WeatherCatV1.21B27,2013-12-13 10:37:00,
2013-12-13 05:42:00,19.2,14.4,30.15,West,264,3.0,5.0,81,0.00,,,0.00,WeatherCatV1.21B27,2013-12-13 10:42:00,
2013-12-13 05:47:00,19.3,14.4,30.16,West,277,2.0,4.0,81,0.00,,,0.00,WeatherCatV1.21B27,2013-12-13 10:47:00,
2013-12-13 05:52:00,19.3,14.4,30.15,West,275,3.0,5.0,81,0.00,,,0.00,WeatherCatV1.21B27,2013-12-13 10:52:00,
2013-12-13 05:57:00,19.4,14.5,30.15,West,263,2.0,7.0,81,0.00,,,0.00,WeatherCatV1.21B27,2013-12-13 10:57:00,
2013-12-13 06:02:00,19.4,14.5,30.15,WSW,242,4.0,5.0,81,0.00,,,0.00,WeatherCatV1.21B27,2013-12-13 11:02:00,
2013-12-13 06:07:00,19.4,14.5,30.16,WNW,299,2.0,7.0,81,0.00,,,0.00,WeatherCatV1.21B27,2013-12-13 11:07:00,
2013-12-13 06:12:00,19.4,14.5,30.16,West,276,4.0,4.0,81,0.00,,,0.00,WeatherCatV1.21B27,2013-12-13 11:12:00,
2013-12-13 06:17:00,19.5,14.6,30.15,WNW,292,4.0,4.0,81,0.00,,,0.00,WeatherCatV1.21B27,2013-12-13 11:17:00,
2013-12-13 06:22:00,19.5,14.6,30.16,WNW,283,4.0,7.0,81,0.00,,,0.00,WeatherCatV1.21B27,2013-12-13 11:22:00,
2013-12-13 06:27:00,19.6,14.7,30.16,WSW,257,2.0,5.0,81,0.00,,,0.00,WeatherCatV1.21B27,2013-12-13 11:27:00,
2013-12-13 06:32:00,19.7,14.8,30.15,West,263,2.0,7.0,81,0.00,,,0.00,WeatherCatV1.21B27,2013-12-13 11:32:00,
2013-12-13 06:37:00,19.7,14.8,30.16,WSW,258,3.0,5.0,81,0.00,,,0.00,WeatherCatV1.21B27,2013-12-13 11:37:00,
2013-12-13 06:42:00,19.7,14.8,30.16,West,281,2.0,5.0,81,0.00,,,0.00,WeatherCatV1.21B27,2013-12-13 11:42:00,
2013-12-13 06:47:00,19.8,14.9,30.16,West,262,3.0,5.0,81,0.00,,,0.00,WeatherCatV1.21B27,2013-12-13 11:47:00,
2013-12-13 06:52:00,19.8,14.9,30.17,West,269,4.0,4.0,81,0.00,,,0.00,WeatherCatV1.21B27,2013-12-13 11:52:00,
2013-12-13 06:57:00,19.8,14.9,30.17,West,264,3.0,4.0,81,0.00,,,0.00,WeatherCatV1.21B27,2013-12-13 11:57:00,
2013-12-13 07:02:00,19.8,14.9,30.17,West,273,4.0,6.0,81,0.00,,,0.00,WeatherCatV1.21B27,2013-12-13 12:02:00,
2013-12-13 07:07:00,19.8,14.9,30.17,West,264,2.0,5.0,81,0.00,,,0.00,WeatherCatV1.21B27,2013-12-13 12:07:00,
2013-12-13 07:12:00,19.9,15.0,30.17,West,263,2.0,5.0,81,0.00,,,0.00,WeatherCatV1.21B27,2013-12-13 12:12:00,
2013-12-13 07:17:00,19.9,15.0,30.17,West,269,1.0,5.0,81,0.00,,,0.00,WeatherCatV1.21B27,2013-12-13 12:17:00,
2013-12-13 07:22:00,19.9,15.0,30.18,West,261,3.0,5.0,81,0.00,,,0.00,WeatherCatV1.21B27,2013-12-13 12:22:00,
2013-12-13 07:24:00,20.0,15.1,30.18,WSW,254,4.0,4.0,81,0.00,,,0.00,WeatherCatV1.21B27,2013-12-13 12:24:00,
2013-12-13 07:29:00,20.0,15.1,30.18,West,268,2.0,4.0,81,0.00,,,0.00,WeatherCatV1.21B27,2013-12-13 12:29:00,
2013-12-13 07:34:00,20.0,15.1,30.18,West,271,3.0,5.0,81,0.00,,,0.00,WeatherCatV1.21B27,2013-12-13 12:34:00,
2013-12-13 07:39:00,20.0,15.1,30.18,WSW,254,2.0,5.0,81,0.00,,,0.00,WeatherCatV1.21B27,2013-12-13 12:39:00,
2013-12-13 07:44:00,20.0,15.1,30.18,West,261,4.0,4.0,81,0.00,,,0.00,WeatherCatV1.21B27,2013-12-13 12:44:00,
2013-12-13 07:49:00,20.0,15.1,30.18,West,263,4.0,5.0,81,0.00,,,0.00,WeatherCatV1.21B27,2013-12-13 12:49:00,
2013-12-13 07:54:00,20.0,15.1,30.18,West,264,1.0,3.0,81,0.00,,,0.00,WeatherCatV1.21B27,2013-12-13 12:54:00,
2013-12-13 07:59:00,20.0,15.4,30.18,West,259,4.0,4.0,82,0.00,,,0.00,WeatherCatV1.21B27,2013-12-13 12:59:00,
2013-12-13 08:04:00,20.0,15.4,30.18,SW,229,3.0,3.0,82,0.00,,,0.00,WeatherCatV1.21B27,2013-12-13 13:04:00,
2013-12-13 08:09:00,20.0,15.1,30.18,SW,219,0.0,2.0,81,0.00,,,0.00,WeatherCatV1.21B27,2013-12-13 13:09:00,
2013-12-13 08:14:00,20.0,15.1,30.18,SW,228,2.0,2.0,81,0.00,,,0.00,WeatherCatV1.21B27,2013-12-13 13:14:00,
2013-12-13 08:19:00,20.0,15.1,30.18,SW,226,2.0,5.0,81,0.00,,,0.00,WeatherCatV1.21B27,2013-12-13 13:19:00,
2013-12-13 08:24:00,19.9,15.0,30.19,West,276,4.0,4.0,81,0.00,,,0.00,WeatherCatV1.21B27,2013-12-13 13:24:00,
2013-12-13 08:29:00,19.9,15.0,30.19,WSW,251,1.0,3.0,81,0.00,,,0.00,WeatherCatV1.21B27,2013-12-13 13:29:00,
2013-12-13 08:34:00,20.0,15.4,30.19,WSW,252,2.0,4.0,82,0.00,,,0.00,WeatherCatV1.21B27,2013-12-13 13:34:00,
2013-12-13 08:39:00,20.0,15.1,30.19,WSW,242,4.0,5.0,81,0.00,,,0.00,WeatherCatV1.21B27,2013-12-13 13:39:00,
2013-12-13 08:44:00,20.1,15.2,30.19,WSW,242,1.0,5.0,81,0.00,,,0.00,WeatherCatV1.21B27,2013-12-13 13:44:00,
2013-12-13 08:49:00,20.2,15.3,30.20,WSW,255,2.0,4.0,81,0.00,,,0.00,WeatherCatV1.21B27,2013-12-13 13:49:00,
2013-12-13 08:54:00,20.2,15.3,30.20,West,277,5.0,7.0,81,0.00,,,0.00,WeatherCatV1.21B27,2013-12-13 13:54:00,
2013-12-13 08:59:00,20.3,15.4,30.20,West,261,6.0,7.0,81,0.00,,,0.00,WeatherCatV1.21B27,2013-12-13 13:59:00,
2013-12-13 09:04:00,20.2,15.0,30.20,WSW,258,1.0,5.0,80,0.00,,,0.00,WeatherCatV1.21B27,2013-12-13 14:04:00,
2013-12-13 09:09:00,20.3,15.4,30.20,West,261,2.0,4.0,81,0.00,,,0.00,WeatherCatV1.21B27,2013-12-13 14:09:00,
2013-12-13 09:14:00,20.4,15.5,30.20,WSW,246,3.0,4.0,81,0.00,,,0.00,WeatherCatV1.21B27,2013-12-13 14:14:00,
2013-12-13 09:19:00,20.5,15.6,30.20,WNW,291,4.0,5.0,81,0.00,,,0.00,WeatherCatV1.21B27,2013-12-13 14:19:00,
2013-12-13 09:24:00,20.6,15.7,30.20,WSW,250,3.0,4.0,81,0.00,,,0.00,WeatherCatV1.21B27,2013-12-13 14:24:00,
2013-12-13 09:29:00,20.7,15.8,30.20,WSW,244,5.0,5.0,81,0.00,,,0.00,WeatherCatV1.21B27,2013-12-13 14:29:00,
2013-12-13 09:34:00,20.7,15.8,30.21,WSW,254,3.0,6.0,81,0.00,,,0.00,WeatherCatV1.21B27,2013-12-13 14:34:00,
2013-12-13 09:39:00,20.9,16.0,30.21,WSW,248,3.0,5.0,81,0.00,,,0.00,WeatherCatV1.21B27,2013-12-13 14:39:00,
2013-12-13 09:44:00,21.0,16.1,30.20,West,270,5.0,5.0,81,0.00,,,0.00,WeatherCatV1.21B27,2013-12-13 14:44:00,
2013-12-13 09:49:00,21.1,16.2,30.21,West,275,2.0,2.0,81,0.00,,,0.00,WeatherCatV1.21B27,2013-12-13 14:49:00,
2013-12-13 09:54:00,21.4,16.5,30.21,WSW,240,1.0,3.0,81,0.00,,,0.00,WeatherCatV1.21B27,2013-12-13 14:54:00,
2013-12-13 09:59:00,21.5,16.3,30.21,SW,236,4.0,5.0,80,0.00,,,0.00,WeatherCatV1.21B27,2013-12-13 14:59:00,
2013-12-13 10:04:00,21.5,16.3,30.21,WSW,252,2.0,4.0,80,0.00,,,0.00,WeatherCatV1.21B27,2013-12-13 15:04:00,
2013-12-13 10:09:00,21.7,16.5,30.21,West,267,4.0,6.0,80,0.00,,,0.00,WeatherCatV1.21B27,2013-12-13 15:09:00,
2013-12-13 10:14:00,21.7,16.5,30.21,West,263,5.0,6.0,80,0.00,,,0.00,WeatherCatV1.21B27,2013-12-13 15:14:00,
2013-12-13 10:19:00,21.7,16.5,30.21,WNW,284,2.0,3.0,80,0.00,,,0.00,WeatherCatV1.21B27,2013-12-13 15:19:00,
2013-12-13 10:24:00,21.8,16.6,30.21,WNW,286,1.0,3.0,80,0.00,,,0.00,WeatherCatV1.21B27,2013-12-13 15:24:00,
2013-12-13 10:29:00,22.1,16.9,30.21,WSW,249,2.0,5.0,80,0.00,,,0.00,WeatherCatV1.21B27,2013-12-13 15:29:00,
2013-12-13 10:34:00,22.3,17.1,30.21,West,269,3.0,5.0,80,0.00,,,0.00,WeatherCatV1.21B27,2013-12-13 15:34:00,
2013-12-13 10:39:00,22.4,17.2,30.22,WSW,252,2.0,4.0,80,0.00,,,0.00,WeatherCatV1.21B27,2013-12-13 15:39:00,
2013-12-13 10:44:00,22.6,17.4,30.22,WSW,251,5.0,6.0,80,0.00,,,0.00,WeatherCatV1.21B27,2013-12-13 15:44:00,
2013-12-13 10:49:00,22.7,17.2,30.21,WSW,237,0.0,3.0,79,0.00,,,0.00,WeatherCatV1.21B27,2013-12-13 15:49:00,
2013-12-13 10:54:00,22.9,17.4,30.22,SW,229,2.0,2.0,79,0.00,,,0.00,WeatherCatV1.21B27,2013-12-13 15:54:00,
2013-12-13 10:59:00,23.1,17.6,30.22,WSW,244,0.0,5.0,79,0.00,,,0.00,WeatherCatV1.21B27,2013-12-13 15:59:00,
2013-12-13 11:04:00,23.2,17.7,30.22,West,272,3.0,6.0,79,0.00,,,0.00,WeatherCatV1.21B27,2013-12-13 16:04:00,
2013-12-13 11:09:00,23.4,18.2,30.22,WSW,254,1.0,2.0,80,0.00,,,0.00,WeatherCatV1.21B27,2013-12-13 16:09:00,
2013-12-13 11:14:00,23.5,18.0,30.22,WNW,284,4.0,4.0,79,0.00,,,0.00,WeatherCatV1.21B27,2013-12-13 16:14:00,
2013-12-13 11:19:00,23.5,18.0,30.22,WNW,286,2.0,5.0,79,0.00,,,0.00,WeatherCatV1.21B27,2013-12-13 16:19:00,
2013-12-13 11:24:00,23.5,18.0,30.21,West,265,3.0,5.0,79,0.00,,,0.00,WeatherCatV1.21B27,2013-12-13 16:24:00,
2013-12-13 11:29:00,23.6,18.4,30.21,NW,304,3.0,4.0,80,0.00,,,0.00,WeatherCatV1.21B27,2013-12-13 16:29:00,
2013-12-13 11:34:00,23.8,18.3,30.21,West,272,3.0,3.0,79,0.00,,,0.00,WeatherCatV1.21B27,2013-12-13 16:34:00,
2013-12-13 11:39:00,24.0,18.5,30.21,WNW,302,2.0,4.0,79,0.00,,,0.00,WeatherCatV1.21B27,2013-12-13 16:39:00,
2013-12-13 11:44:00,24.1,18.5,30.20,WNW,284,2.0,4.0,79,0.00,,,0.00,WeatherCatV1.21B27,2013-12-13 16:44:00,
2013-12-13 11:49:00,24.2,18.6,30.20,WSW,238,3.0,3.0,79,0.00,,,0.00,WeatherCatV1.21B27,2013-12-13 16:49:00,
2013-12-13 11:54:00,24.2,18.6,30.20,West,270,2.0,4.0,79,0.00,,,0.00,WeatherCatV1.21B27,2013-12-13 16:54:00,
2013-12-13 11:59:00,24.2,18.6,30.20,WSW,255,2.0,5.0,79,0.00,,,0.00,WeatherCatV1.21B27,2013-12-13 16:59:00,
2013-12-13 12:04:00,24.1,18.8,30.20,SW,227,0.0,3.0,80,0.00,,,0.00,WeatherCatV1.21B27,2013-12-13 17:04:00,
2013-12-13 12:09:00,24.2,18.6,30.19,WNW,289,4.0,4.0,79,0.00,,,0.00,WeatherCatV1.21B27,2013-12-13 17:09:00,
2013-12-13 12:14:00,24.2,18.9,30.19,WNW,299,4.0,4.0,80,0.00,,,0.00,WeatherCatV1.21B27,2013-12-13 17:14:00,
2013-12-13 12:19:00,24.2,18.9,30.19,WNW,298,1.0,3.0,80,0.00,,,0.00,WeatherCatV1.21B27,2013-12-13 17:19:00,
2013-12-13 12:24:00,24.3,18.7,30.19,West,279,1.0,2.0,79,0.00,,,0.00,WeatherCatV1.21B27,2013-12-13 17:24:00,
2013-12-13 12:29:00,24.4,18.8,30.19,West,279,0.0,1.0,79,0.00,,,0.00,WeatherCatV1.21B27,2013-12-13 17:29:00,
2013-12-13 12:34:00,24.7,19.1,30.19,West,281,0.0,3.0,79,0.00,,,0.00,WeatherCatV1.21B27,2013-12-13 17:34:00,
2013-12-13 12:39:00,24.9,19.3,30.19,West,281,0.0,1.0,79,0.00,,,0.00,WeatherCatV1.21B27,2013-12-13 17:39:00,
2013-12-13 12:44:00,25.1,19.2,30.18,West,281,0.0,0.0,78,0.00,,,0.00,WeatherCatV1.21B27,2013-12-13 17:44:00,
2013-12-13 12:49:00,25.6,19.7,30.18,West,267,0.0,1.0,78,0.00,,,0.00,WeatherCatV1.21B27,2013-12-13 17:49:00,
2013-12-13 12:54:00,25.9,20.0,30.18,WSW,243,2.0,3.0,78,0.00,,,0.00,WeatherCatV1.21B27,2013-12-13 17:54:00,
2013-12-13 12:59:00,26.1,19.9,30.18,SW,222,2.0,2.0,77,0.00,,,0.00,WeatherCatV1.21B27,2013-12-13 17:59:00,
2013-12-13 13:04:00,26.0,19.8,30.18,SSW,205,2.0,3.0,77,0.00,,,0.00,WeatherCatV1.21B27,2013-12-13 18:04:00,
2013-12-13 13:09:00,26.0,19.8,30.18,SSW,205,2.0,3.0,77,0.00,,,0.00,WeatherCatV1.21B27,2013-12-13 18:09:00,
2013-12-13 13:14:00,26.0,19.8,30.18,SSW,205,0.0,2.0,77,0.00,,,0.00,WeatherCatV1.21B27,2013-12-13 18:14:00,
2013-12-13 13:19:00,26.1,20.2,30.18,SSW,202,2.0,3.0,78,0.00,,,0.00,WeatherCatV1.21B27,2013-12-13 18:19:00,
2013-12-13 13:24:00,26.2,20.3,30.17,SSW,202,1.0,3.0,78,0.00,,,0.00,WeatherCatV1.21B27,2013-12-13 18:24:00,
2013-12-13 13:29:00,26.4,20.5,30.17,SSW,204,1.0,3.0,78,0.00,,,0.00,WeatherCatV1.21B27,2013-12-13 18:29:00,
2013-12-13 13:34:00,26.6,20.7,30.18,SSW,204,1.0,2.0,78,0.00,,,0.00,WeatherCatV1.21B27,2013-12-13 18:34:00,
2013-12-13 13:39:00,26.7,20.2,30.17,SSW,206,2.0,3.0,76,0.00,,,0.00,WeatherCatV1.21B27,2013-12-13 18:39:00,
2013-12-13 13:44:00,26.7,20.5,30.17,SW,226,0.0,2.0,77,0.00,,,0.00,WeatherCatV1.21B27,2013-12-13 18:44:00,
2013-12-13 13:49:00,26.9,20.7,30.17,SW,226,0.0,1.0,77,0.00,,,0.00,WeatherCatV1.21B27,2013-12-13 18:49:00,
2013-12-13 13:54:00,27.2,20.7,30.17,SSW,192,3.0,3.0,76,0.00,,,0.00,WeatherCatV1.21B27,2013-12-13 18:54:00,
2013-12-13 13:59:00,27.2,20.7,30.17,South,188,1.0,2.0,76,0.00,,,0.00,WeatherCatV1.21B27,2013-12-13 18:59:00,
2013-12-13 14:04:00,27.2,20.7,30.17,South,188,2.0,3.0,76,0.00,,,0.00,WeatherCatV1.21B27,2013-12-13 19:04:00,
2013-12-13 14:09:00,27.3,20.8,30.17,South,188,0.0,3.0,76,0.00,,,0.00,WeatherCatV1.21B27,2013-12-13 19:09:00,
2013-12-13 14:14:00,27.2,20.7,30.17,South,189,0.0,2.0,76,0.00,,,0.00,WeatherCatV1.21B27,2013-12-13 19:14:00,
2013-12-13 14:19:00,27.4,21.2,30.17,South,188,2.0,2.0,77,0.00,,,0.00,WeatherCatV1.21B27,2013-12-13 19:19:00,
2013-12-13 14:24:00,27.6,21.0,30.16,South,180,1.0,3.0,76,0.00,,,0.00,WeatherCatV1.21B27,2013-12-13 19:24:00,
2013-12-13 14:29:00,27.9,21.3,30.16,South,180,2.0,3.0,76,0.00,,,0.00,WeatherCatV1.21B27,2013-12-13 19:29:00,
2013-12-13 14:34:00,28.5,21.6,30.16,South,180,0.0,0.0,75,0.00,,,0.00,WeatherCatV1.21B27,2013-12-13 19:34:00,
2013-12-13 14:39:00,29.3,22.1,30.16,South,180,0.0,0.0,74,0.00,,,0.00,WeatherCatV1.21B27,2013-12-13 19:39:00,
2013-12-13 14:44:00,29.3,21.4,30.17,South,180,3.0,4.0,72,0.00,,,0.00,WeatherCatV1.21B27,2013-12-13 19:44:00,
2013-12-13 14:49:00,28.8,21.6,30.17,South,180,1.0,4.0,74,0.00,,,0.00,WeatherCatV1.21B27,2013-12-13 19:49:00,
2013-12-13 14:54:00,28.7,21.5,30.16,South,180,1.0,2.0,74,0.00,,,0.00,WeatherCatV1.21B27,2013-12-13 19:54:00,
2013-12-13 14:59:00,29.1,21.9,30.16,South,180,1.0,3.0,74,0.00,,,0.00,WeatherCatV1.21B27,2013-12-13 19:59:00,
2013-12-13 15:04:00,29.4,21.8,30.16,South,180,0.0,2.0,73,0.00,,,0.00,WeatherCatV1.21B27,2013-12-13 20:04:00,
2013-12-13 15:09:00,29.3,21.7,30.17,SSE,168,0.0,2.0,73,0.00,,,0.00,WeatherCatV1.21B27,2013-12-13 20:09:00,
2013-12-13 15:14:00,29.5,21.9,30.17,SSE,168,1.0,3.0,73,0.00,,,0.00,WeatherCatV1.21B27,2013-12-13 20:14:00,
2013-12-13 15:19:00,29.3,21.7,30.17,SSE,161,0.0,3.0,73,0.00,,,0.00,WeatherCatV1.21B27,2013-12-13 20:19:00,
2013-12-13 15:24:00,29.4,21.8,30.18,South,174,0.0,3.0,73,0.00,,,0.00,WeatherCatV1.21B27,2013-12-13 20:24:00,
2013-12-13 15:29:00,29.5,21.6,30.18,South,174,0.0,2.0,72,0.00,,,0.00,WeatherCatV1.21B27,2013-12-13 20:29:00,
2013-12-13 15:34:00,29.4,21.5,30.18,South,174,0.0,2.0,72,0.00,,,0.00,WeatherCatV1.21B27,2013-12-13 20:34:00,
2013-12-13 15:39:00,29.1,21.5,30.18,South,174,0.0,2.0,73,0.00,,,0.00,WeatherCatV1.21B27,2013-12-13 20:39:00,
2013-12-13 15:44:00,28.8,21.3,30.18,South,174,0.0,0.0,73,0.00,,,0.00,WeatherCatV1.21B27,2013-12-13 20:44:00,
2013-12-13 15:49:00,28.7,21.5,30.17,South,171,2.0,3.0,74,0.00,,,0.00,WeatherCatV1.21B27,2013-12-13 20:49:00,
2013-12-13 15:54:00,28.4,21.2,30.18,South,171,0.0,0.0,74,0.00,,,0.00,WeatherCatV1.21B27,2013-12-13 20:54:00,
2013-12-13 15:59:00,28.3,21.4,30.18,South,171,0.0,0.0,75,0.00,,,0.00,WeatherCatV1.21B27,2013-12-13 20:59:00,
2013-12-13 16:04:00,28.2,21.3,30.18,South,171,0.0,0.0,75,0.00,,,0.00,WeatherCatV1.21B27,2013-12-13 21:04:00,
2013-12-13 16:09:00,28.2,21.3,30.19,South,171,0.0,0.0,75,0.00,,,0.00,WeatherCatV1.21B27,2013-12-13 21:09:00,
2013-12-13 16:14:00,28.2,21.0,30.19,South,171,0.0,0.0,74,0.00,,,0.00,WeatherCatV1.21B27,2013-12-13 21:14:00,
2013-12-13 16:19:00,28.2,21.0,30.19,South,171,0.0,0.0,74,0.00,,,0.00,WeatherCatV1.21B27,2013-12-13 21:19:00,
2013-12-13 16:24:00,28.3,21.1,30.19,South,171,0.0,0.0,74,0.00,,,0.00,WeatherCatV1.21B27,2013-12-13 21:24:00,
2013-12-13 16:29:00,28.2,21.3,30.19,South,171,0.0,0.0,75,0.00,,,0.00,WeatherCatV1.21B27,2013-12-13 21:29:00,
2013-12-13 16:34:00,28.1,21.2,30.19,South,171,0.0,0.0,75,0.00,,,0.00,WeatherCatV1.21B27,2013-12-13 21:34:00,
2013-12-13 16:39:00,27.9,21.3,30.18,South,171,1.0,2.0,76,0.00,,,0.00,WeatherCatV1.21B27,2013-12-13 21:39:00,
2013-12-13 16:44:00,27.7,21.1,30.18,South,171,1.0,1.0,76,0.00,,,0.00,WeatherCatV1.21B27,2013-12-13 21:44:00,
2013-12-13 16:49:00,27.5,21.0,30.18,South,171,0.0,1.0,76,0.00,,,0.00,WeatherCatV1.21B27,2013-12-13 21:49:00,
2013-12-13 16:54:00,27.3,21.1,30.18,South,171,1.0,2.0,77,0.00,,,0.00,WeatherCatV1.21B27,2013-12-13 21:54:00,
2013-12-13 16:59:00,27.1,20.9,30.18,SE,134,4.0,5.0,77,0.00,,,0.00,WeatherCatV1.21B27,2013-12-13 21:59:00,
2013-12-13 17:04:00,27.0,20.8,30.18,SE,134,1.0,3.0,77,0.00,,,0.00,WeatherCatV1.21B27,2013-12-13 22:04:00,
2013-12-13 17:09:00,26.9,21.0,30.18,SE,134,1.0,3.0,78,0.00,,,0.00,WeatherCatV1.21B27,2013-12-13 22:09:00,
2013-12-13 17:14:00,26.8,20.9,30.18,SE,134,1.0,3.0,78,0.00,,,0.00,WeatherCatV1.21B27,2013-12-13 22:14:00,
2013-12-13 17:19:00,26.7,20.8,30.18,SE,132,1.0,3.0,78,0.00,,,0.00,WeatherCatV1.21B27,2013-12-13 22:19:00,
2013-12-13 17:24:00,26.6,20.7,30.18,SE,130,2.0,3.0,78,0.00,,,0.00,WeatherCatV1.21B27,2013-12-13 22:24:00,
2013-12-13 17:29:00,26.5,20.9,30.18,SE,129,2.0,3.0,79,0.00,,,0.00,WeatherCatV1.21B27,2013-12-13 22:29:00,
2013-12-13 17:34:00,26.4,21.1,30.18,SE,127,2.0,3.0,80,0.00,,,0.00,WeatherCatV1.21B27,2013-12-13 22:34:00,
2013-12-13 17:39:00,26.4,21.1,30.18,East,92,3.0,6.0,80,0.00,,,0.00,WeatherCatV1.21B27,2013-12-13 22:39:00,
2013-12-13 17:44:00,26.4,21.1,30.18,East,83,5.0,6.0,80,0.00,,,0.00,WeatherCatV1.21B27,2013-12-13 22:44:00,
2013-12-13 17:49:00,26.3,21.0,30.18,East,86,5.0,5.0,80,0.00,,,0.00,WeatherCatV1.21B27,2013-12-13 22:49:00,
2013-12-13 17:54:00,26.3,21.0,30.18,East,86,1.0,3.0,80,0.00,,,0.00,WeatherCatV1.21B27,2013-12-13 22:54:00,
2013-12-13 17:59:00,26.3,21.0,30.18,East,86,1.0,5.0,80,0.00,,,0.00,WeatherCatV1.21B27,2013-12-13 22:59:00,
2013-12-13 18:04:00,26.2,20.9,30.19,East,86,2.0,3.0,80,0.00,,,0.00,WeatherCatV1.21B27,2013-12-13 23:04:00,
2013-12-13 18:09:00,26.2,20.9,30.19,East,86,3.0,3.0,80,0.00,,,0.00,WeatherCatV1.21B27,2013-12-13 23:09:00,
2013-12-13 18:14:00,26.1,20.8,30.19,East,86,2.0,3.0,80,0.00,,,0.00,WeatherCatV1.21B27,2013-12-13 23:14:00,
2013-12-13 18:19:00,26.1,20.8,30.20,East,86,2.0,2.0,80,0.00,,,0.00,WeatherCatV1.21B27,2013-12-13 23:19:00,
2013-12-13 18:24:00,26.0,21.0,30.20,East,86,3.0,5.0,81,0.00,,,0.00,WeatherCatV1.21B27,2013-12-13 23:24:00,
2013-12-13 18:29:00,26.0,21.0,30.20,East,86,1.0,3.0,81,0.00,,,0.00,WeatherCatV1.21B27,2013-12-13 23:29:00,
2013-12-13 18:34:00,26.0,21.0,30.20,East,86,0.0,0.0,81,0.00,,,0.00,WeatherCatV1.21B27,2013-12-13 23:34:00,
2013-12-13 18:39:00,25.8,20.5,30.20,East,86,2.0,3.0,80,0.00,,,0.00,WeatherCatV1.21B27,2013-12-13 23:39:00,
2013-12-13 18:44:00,25.8,20.5,30.20,East,86,1.0,5.0,80,0.00,,,0.00,WeatherCatV1.21B27,2013-12-13 23:44:00,
2013-12-13 18:49:00,25.8,20.8,30.20,East,86,3.0,3.0,81,0.00,,,0.00,WeatherCatV1.21B27,2013-12-13 23:49:00,
2013-12-13 18:54:00,25.7,20.7,30.21,East,88,2.0,5.0,81,0.00,,,0.00,WeatherCatV1.21B27,2013-12-13 23:54:00,
2013-12-13 18:59:00,25.7,20.7,30.21,East,89,2.0,3.0,81,0.00,,,0.00,WeatherCatV1.21B27,2013-12-13 23:59:00,
2013-12-13 19:04:00,25.6,20.6,30.21,East,89,1.0,3.0,81,0.00,,,0.00,WeatherCatV1.21B27,2013-12-14 00:04:00,
2013-12-13 19:09:00,25.5,20.5,30.21,East,89,0.0,2.0,81,0.00,,,0.00,WeatherCatV1.21B27,2013-12-14 00:09:00,
2013-12-13 19:14:00,25.4,20.4,30.21,East,101,6.0,6.0,81,0.00,,,0.00,WeatherCatV1.21B27,2013-12-14 00:14:00,
2013-12-13 19:19:00,25.4,20.4,30.21,East,101,2.0,3.0,81,0.00,,,0.00,WeatherCatV1.21B27,2013-12-14 00:19:00,
2013-12-13 19:24:00,25.4,20.7,30.21,East,101,3.0,5.0,82,0.00,,,0.00,WeatherCatV1.21B27,2013-12-14 00:24:00,
2013-12-13 19:29:00,25.3,20.6,30.20,ESE,103,4.0,4.0,82,0.00,,,0.00,WeatherCatV1.21B27,2013-12-14 00:29:00,
2013-12-13 19:34:00,25.3,20.6,30.21,ESE,107,3.0,5.0,82,0.00,,,0.00,WeatherCatV1.21B27,2013-12-14 00:34:00,
2013-12-13 19:39:00,25.4,20.7,30.21,ESE,113,3.0,3.0,82,0.00,,,0.00,WeatherCatV1.21B27,2013-12-14 00:39:00,
2013-12-13 19:44:00,25.3,20.6,30.21,ESE,111,2.0,2.0,82,0.00,,,0.00,WeatherCatV1.21B27,2013-12-14 00:44:00,
2013-12-13 19:49:00,25.3,20.6,30.21,ESE,112,5.0,5.0,82,0.00,,,0.00,WeatherCatV1.21B27,2013-12-14 00:49:00,
2013-12-13 19:54:00,25.3,20.6,30.21,ESE,105,3.0,7.0,82,0.00,,,0.00,WeatherCatV1.21B27,2013-12-14 00:54:00,
2013-12-13 19:59:00,25.3,20.6,30.21,ESE,105,1.0,5.0,82,0.00,,,0.00,WeatherCatV1.21B27,2013-12-14 00:59:00,
2013-12-13 20:04:00,25.3,20.6,30.22,ESE,112,3.0,5.0,82,0.00,,,0.00,WeatherCatV1.21B27,2013-12-14 01:04:00,
2013-12-13 20:09:00,25.4,20.7,30.22,ESE,114,3.0,3.0,82,0.00,,,0.00,WeatherCatV1.21B27,2013-12-14 01:09:00,
2013-12-13 20:13:00,25.4,20.7,30.22,ESE,108,3.0,7.0,82,0.00,,,0.00,WeatherCatV1.21B27,2013-12-14 01:13:00,
2013-12-13 20:18:00,25.4,20.7,30.22,SE,124,2.0,5.0,82,0.00,,,0.00,WeatherCatV1.21B27,2013-12-14 01:18:00,
2013-12-13 20:23:00,25.4,20.7,30.22,ESE,123,2.0,5.0,82,0.00,,,0.00,WeatherCatV1.21B27,2013-12-14 01:23:00,
2013-12-13 20:28:00,25.4,21.0,30.22,ESE,121,4.0,5.0,83,0.00,,,0.00,WeatherCatV1.21B27,2013-12-14 01:28:00,
2013-12-13 20:33:00,25.4,20.7,30.22,ESE,115,4.0,7.0,82,0.00,,,0.00,WeatherCatV1.21B27,2013-12-14 01:33:00,
2013-12-13 20:38:00,25.3,20.9,30.22,ESE,105,3.0,5.0,83,0.00,,,0.00,WeatherCatV1.21B27,2013-12-14 01:38:00,
2013-12-13 20:43:00,25.3,20.6,30.22,ESE,102,2.0,5.0,82,0.00,,,0.00,WeatherCatV1.21B27,2013-12-14 01:43:00,
2013-12-13 20:48:00,25.3,20.6,30.22,East,97,5.0,8.0,82,0.00,,,0.00,WeatherCatV1.21B27,2013-12-14 01:48:00,
2013-12-13 20:53:00,25.3,20.6,30.22,SE,131,3.0,5.0,82,0.00,,,0.00,WeatherCatV1.21B27,2013-12-14 01:53:00,
2013-12-13 20:58:00,25.3,20.6,30.23,SE,144,4.0,8.0,82,0.00,,,0.00,WeatherCatV1.21B27,2013-12-14 01:58:00,
2013-12-13 21:03:00,25.3,20.6,30.23,ESE,109,4.0,7.0,82,0.00,,,0.00,WeatherCatV1.21B27,2013-12-14 02:03:00,
2013-12-13 21:08:00,25.3,20.6,30.23,SE,126,5.0,5.0,82,0.00,,,0.00,WeatherCatV1.21B27,2013-12-14 02:08:00,
2013-12-13 21:13:00,25.3,20.6,30.23,SE,138,1.0,4.0,82,0.00,,,0.00,WeatherCatV1.21B27,2013-12-14 02:13:00,
2013-12-13 21:18:00,25.2,20.5,30.23,ESE,116,2.0,3.0,82,0.00,,,0.00,WeatherCatV1.21B27,2013-12-14 02:18:00,
2013-12-13 21:23:00,25.2,20.5,30.22,ESE,109,3.0,4.0,82,0.00,,,0.00,WeatherCatV1.21B27,2013-12-14 02:23:00,
2013-12-13 21:28:00,25.2,20.5,30.22,ESE,103,4.0,7.0,82,0.00,,,0.00,WeatherCatV1.21B27,2013-12-14 02:28:00,
2013-12-13 21:33:00,25.2,20.5,30.23,East,94,3.0,6.0,82,0.00,,,0.00,WeatherCatV1.21B27,2013-12-14 02:33:00,
2013-12-13 21:38:00,25.2,20.8,30.23,East,88,2.0,3.0,83,0.00,,,0.00,WeatherCatV1.21B27,2013-12-14 02:38:00,
2013-12-13 21:43:00,25.2,20.8,30.23,ESE,113,4.0,8.0,83,0.00,,,0.00,WeatherCatV1.21B27,2013-12-14 02:43:00,
2013-12-13 21:48:00,25.1,20.7,30.23,East,100,6.0,8.0,83,0.00,,,0.00,WeatherCatV1.21B27,2013-12-14 02:48:00,
2013-12-13 21:53:00,25.1,20.7,30.23,East,95,2.0,7.0,83,0.00,,,0.00,WeatherCatV1.21B27,2013-12-14 02:53:00,
2013-12-13 21:58:00,25.1,20.7,30.22,SE,135,5.0,9.0,83,0.00,,,0.00,WeatherCatV1.21B27,2013-12-14 02:58:00,
2013-12-13 22:03:00,25.1,21.0,30.22,East,95,6.0,9.0,84,0.00,,,0.00,WeatherCatV1.21B27,2013-12-14 03:03:00,
2013-12-13 22:08:00,25.0,20.9,30.22,East,96,2.0,6.0,84,0.00,,,0.00,WeatherCatV1.21B27,2013-12-14 03:08:00,
2013-12-13 22:13:00,24.9,20.8,30.23,SE,124,5.0,6.0,84,0.00,,,0.00,WeatherCatV1.21B27,2013-12-14 03:13:00,
2013-12-13 22:18:00,24.9,20.8,30.22,ESE,111,5.0,6.0,84,0.00,,,0.00,WeatherCatV1.21B27,2013-12-14 03:18:00,
2013-12-13 22:23:00,24.9,20.8,30.23,East,84,7.0,8.0,84,0.00,,,0.00,WeatherCatV1.21B27,2013-12-14 03:23:00,
2013-12-13 22:28:00,24.8,20.7,30.23,East,100,6.0,8.0,84,0.00,,,0.00,WeatherCatV1.21B27,2013-12-14 03:28:00,
2013-12-13 22:33:00,24.8,20.7,30.22,ESE,122,5.0,8.0,84,0.00,,,0.00,WeatherCatV1.21B27,2013-12-14 03:33:00,
2013-12-13 22:38:00,24.7,20.6,30.22,East,98,6.0,7.0,84,0.00,,,0.00,WeatherCatV1.21B27,2013-12-14 03:38:00,
2013-12-13 22:43:00,24.7,20.9,30.23,ESE,104,8.0,8.0,85,0.00,,,0.00,WeatherCatV1.21B27,2013-12-14 03:43:00,
2013-12-13 22:48:00,24.6,20.8,30.22,East,90,8.0,11.0,85,0.00,,,0.00,WeatherCatV1.21B27,2013-12-14 03:48:00,
2013-12-13 22:53:00,24.6,20.5,30.22,East,86,3.0,9.0,84,0.00,,,0.00,WeatherCatV1.21B27,2013-12-14 03:53:00,
2013-12-13 22:58:00,24.6,20.8,30.22,East,97,3.0,6.0,85,0.00,,,0.00,WeatherCatV1.21B27,2013-12-14 03:58:00,
2013-12-13 23:03:00,24.6,20.8,30.22,ESE,112,2.0,7.0,85,0.00,,,0.00,WeatherCatV1.21B27,2013-12-14 04:03:00,
2013-12-13 23:08:00,24.5,20.6,30.22,East,94,5.0,8.0,85,0.00,,,0.00,WeatherCatV1.21B27,2013-12-14 04:08:00,
2013-12-13 23:13:00,24.5,20.6,30.21,ESE,102,5.0,11.0,85,0.00,,,0.00,WeatherCatV1.21B27,2013-12-14 04:13:00,
2013-12-13 23:18:00,24.4,20.3,30.21,ESE,116,8.0,8.0,84,0.00,,,0.00,WeatherCatV1.21B27,2013-12-14 04:18:00,
2013-12-13 23:23:00,24.4,20.3,30.21,East,92,7.0,9.0,84,0.00,,,0.00,WeatherCatV1.21B27,2013-12-14 04:23:00,
2013-12-13 23:28:00,24.4,20.3,30.21,East,93,6.0,7.0,84,0.00,,,0.00,WeatherCatV1.21B27,2013-12-14 04:28:00,
2013-12-13 23:33:00,24.3,20.2,30.21,East,91,6.0,13.0,84,0.00,,,0.00,WeatherCatV1.21B27,2013-12-14 04:33:00,
2013-12-13 23:38:00,24.3,20.2,30.21,ENE,78,5.0,10.0,84,0.00,,,0.00,WeatherCatV1.21B27,2013-12-14 04:38:00,
2013-12-13 23:43:00,24.3,20.2,30.21,ENE,73,7.0,10.0,84,0.00,,,0.00,WeatherCatV1.21B27,2013-12-14 04:43:00,
2013-12-13 23:48:00,24.2,20.1,30.20,East,91,11.0,11.0,84,0.00,,,0.00,WeatherCatV1.21B27,2013-12-14 04:48:00,
2013-12-13 23:53:00,24.2,19.8,30.20,East,90,7.0,10.0,83,0.00,,,0.00,WeatherCatV1.21B27,2013-12-14 04:53:00,
2013-12-13 23:58:00,24.2,19.8,30.20,ESE,106,8.0,11.0,83,0.00,,,0.00,WeatherCatV1.21B27,2013-12-14 04:58:00,